Regional Weather Roundup
Issued by NWS

Home | Current Version | Previous Version | Graphics & Text | Print | Product List | Glossary On
Versions: 1 2 3 4 5 6 7 8 9 10 11 12 13 14 15 16 17 18 19 20 21 22 23 24 25 26 27 28 29 30 31 32 33 34 35 36 37 38 39 40 41 42 43 44 45 46 47 48 49 50
000
ASUS43 KLSX 301557
RWRMO

WEATHER SUMMARY FOR MISSOURI
NATIONAL WEATHER SERVICE SPRINGFIELD MO
1100 AM CDT SAT APR 30 2016

NOTE: "FAIR" INDICATES FEW OR NO CLOUDS BELOW 12,000 FEET WITH NO
       SIGNIFICANT WEATHER AND/OR OBSTRUCTIONS TO VISIBILITY.
       CURRENT SKY AND/OR WEATHER CONDITIONS ARE NOT AVAILABLE FOR
       CHILLICOTHE AND FARMINGTON.

MOZ001>031-035>038-043-044-053-054-301700-
...NORTHERN AND WESTERN MISSOURI...

CITY           SKY/WX    TMP DP  RH WIND       PRES   REMARKS
KANSAS CTY INT PTSUNNY   63  60  90 S10       29.64S FOG
KANSAS C DTWN  PTSUNNY   68  61  77 SW10      29.64S
LEE`S SUMMIT   MOSUNNY   67  62  84 S20       29.66S
ST JOSEPH      CLOUDY    57  55  93 E8        29.65R
CHILLICOTHE      N/A     56  54  93 E7        29.69S
KIRKSVILLE     LGT RAIN  52  50  93 E10       29.72S

$$
MOZ066>068-077>081-088>096-101>105-301700-
...SOUTHWEST MISSOURI...

CITY           SKY/WX    TMP DP  RH WIND       PRES   REMARKS
SPRINGFIELD    CLOUDY    69  60  73 SW20G28   29.72R
JOPLIN         PTSUNNY   65  59  81 SW17G24   29.73S
BRANSON        CLOUDY    66  61  82 S6        29.77R

$$
MOZ032>034-039>042-045>050-055>058-069>072-301700-
...CENTRAL MISSOURI...

CITY           SKY/WX    TMP DP  RH WIND       PRES   REMARKS
COLUMBIA       NOT AVBL
JEFFERSON CITY CLOUDY    64  62  93 SE7       29.69F
ROLLA          CLOUDY    63  61  93 S10       29.72S
SEDALIA        CLOUDY    67  62  84 S13       29.69F
WARRENSBURG    PTSUNNY   66  61  82 S14       29.67S

$$
MOZ051-052-059>065-301700-
...EAST CENTRAL MISSOURI...

CITY           SKY/WX    TMP DP  RH WIND       PRES   REMARKS
ST LOUIS INTL  NOT AVBL

$$
MOZ072>076-082>087-097>100-106>115-301700-
...SOUTH CENTRAL AND SOUTHEAST MISSOURI...

CITY           SKY/WX    TMP DP  RH WIND       PRES   REMARKS
CAPE GIRARDEAU CLOUDY    66  62  87 S8        29.82R
POPLAR BLUFF   PTSUNNY   67  61  81 SW13      29.80R
WEST PLAINS    CLOUDY    64  59  83 S8        29.77R

$$


USA.gov is the U.S. government's official web portal to all federal, state and local government web resources and services.